User: anonymous   Login
Location: Choisy
(48.7685°N, 2.4187°E)
Time: 00:47:28
(UTC+00:00)
Language:

HJ-1C - Orbit

View from above orbital plane
View from above orbital plane
View from above satellite
View from above satellite

Ground track
Ground track

The orbit data is extracted from the following two-line orbital elements,

1 38997U 12064A   22026.59562914  .00008872  00000-0  17667-3 0  9997
2 38997  97.1002  56.0889 0009484  32.8058  86.1527 15.47085945516542
Epoch (UTC): 26 January 2022 14:17:42
Eccentricity: 0.0009484
inclination: 97.1002°
perigee height: 419 km
apogee height: 432 km
right ascension of ascending node: 56.0889°
argument of perigee: 32.8058°
revolutions per day: 15.47085945
mean anomaly at epoch: 86.1527°
orbit number at epoch: 51654

The dashed part of the orbit path shows where the satellite is in the earth's shadow,  

DLR